Back to catalog

FENGYUN 1C DEB

AliveSSO
NORAD 29851·DEBRIS·🇨🇳 China

Launched May 10, 1999 from Taiyuan Satellite Launch Center

Loading…

Next Passes (next 24 hours)

TLE

FreshSource: Space-Track

Epoch: Sep 14, 2026, 09:25 UTC

1 29851U 99025EV  26257.39239910  .00000237  00000-0  23712-3 0  9998
2 29851  99.5485 308.0649 0141420 219.3374 206.8088 13.83781329991790

Track FENGYUN 1C DEB in real time with AllMySat

Download on the App Store